This demonstration page uses our WeatherBlox Daily Observations layout. Learn more.

Left ArrowRight Arrow

Hourly Observations for October 31, 2021

Temp ( °F °C ) Dew Point ( °F °C ) Humidity (%) Winds ( mph kmh ) Pressure ( in mb ) Visibility ( mi km ) Precip ( " mm )
12:53 am 00:53 Clear 58 14.4 22 -5.6 25 25 E 5 7 29.80 1009 10 16 N/A
1:53 am 01:53 Clear 54 12.2 22 -5.6 29 29 ESE 5 7 29.80 1009 10 16 N/A
2:53 am 02:53 Clear 51 10.6 23 -5 33 33 E 5 7 29.82 1010 10 16 N/A
3:53 am 03:53 Clear 46 7.8 20 -6.7 35 35 N 7 11 29.83 1010 10 16 N/A
4:53 am 04:53 Clear 45 7.2 21 -6.1 39 39 N 8 13 29.83 1010 10 16 N/A
5:53 am 05:53 Clear 44 6.7 21 -6.1 40 40 N 8 13 29.85 1011 10 16 N/A
6:53 am 06:53 Clear 45 7.2 22 -5.6 40 40 NNW 8 13 29.87 1012 10 16 N/A
7:53 am 07:53 Clear 45 7.2 24 -4.4 44 44 NNW 9 15 29.90 1013 10 16 N/A
8:53 am 08:53 Sunny 49 9.4 26 -3.3 41 41 N 16 26 29.94 1014 10 16 N/A
9:53 am 09:53 Sunny 57 13.9 29 -1.7 34 34 NNE 16 26 29.97 1015 10 16 N/A
10:53 am 10:53 Sunny 64 17.8 32 undefined 30 30 NNE 17 28 29.99 1016 10 16 N/A
11:53 am 11:53 Sunny 67 19.4 33 0.6 28 28 N 13 20 30.01 1016 10 16 N/A
12:53 pm 12:53 Sunny 70 21.1 34 1.1 27 27 NE 12 19 30.01 1016 10 16 N/A
1:53 pm 13:53 Sunny 73 22.8 34 1.1 24 24 NNE 10 17 29.99 1016 10 16 N/A
2:53 pm 14:53 Sunny 75 23.9 34 1.1 22 22 NNE 14 22 29.96 1015 10 16 N/A
3:53 pm 15:53 Sunny 76 24.4 34 1.1 22 22 NE 8 13 29.96 1015 10 16 N/A
4:53 pm 16:53 Sunny 76 24.4 34 1.1 22 22 NNE 7 11 29.96 1014 10 16 N/A
5:53 pm 17:53 Sunny 75 23.9 35 1.7 23 23 NE 10 17 29.96 1015 10 16 N/A
6:53 pm 18:53 Sunny 70 21.1 36 2.2 29 29 ENE 9 15 29.98 1015 10 16 N/A
7:53 pm 19:53 Clear 66 18.9 36 2.2 33 33 ENE 8 13 30.01 1016 10 16 N/A
8:53 pm 20:53 Clear 64 17.8 37 2.8 37 37 ENE 9 15 30.04 1017 10 16 N/A
9:53 pm 21:53 Clear 62 16.7 38 3.3 41 41 ENE 10 17 30.05 1018 10 16 N/A
10:53 pm 22:53 Clear 59 15 39 3.9 48 48 ENE 9 15 30.05 1018 10 16 N/A
11:53 pm 23:53 Clear 57 13.9 40 4.4 53 53 E 6 9 30.06 1018 10 16 N/A

Powered by AerisWeather